Wind_Speed
9 9 9 9 8 8 7 9 10 10 10 10 11 10 10 9 8 6 6 5 4 4 4 4 4 3 2 2 3 2 2 2 2 2 2 3 3 2 3 3 2 3 4
9 8 9 8 8 8 8 9 9 9 9 9 10 10 9 8 7 6 6 5 4 4 3 4 4 3 2 2 2 2 2 2 2 3 3 2 2 2 2 2 1 1 2
8 8 9 8 8 8 8 8 9 9 9 8 9 9 9 8 7 6 6 5 4 4 4 3 4 3 2 2 2 2 1 1 1 1 1 1 2 2 2 1 1 1 2
8 8 8 8 7 7 8 8 9 9 9 8 8 8 8 7 6 6 5 5 4 4 3 3 3 3 3 3 2 2 1 1 1 1 1 2 2 3 2 2 2 2 2
8 8 7 7 7 8 8 8 8 8 8 7 7 8 7 7 6 5 5 4 4 3 3 3 2 2 2 2 2 1 0 1 2 2 2 2 1 2 2 3 3 2 2
8 7 7 7 8 8 8 7 7 7 6 6 7 7 6 6 5 4 4 3 3 3 2 1 1 1 1 1 1 0 0 1 2 2 2 2 2 2 2 2 3 4 3
7 7 8 8 8 8 8 7 7 6 6 6 6 6 6 5 4 4 3 3 3 2 1 1 0 1 1 1 0 1 1 2 2 2 2 3 3 3 3 3 4 4 4
7 7 8 8 8 8 7 6 6 6 5 5 5 5 5 4 4 3 3 3 2 2 1 0 0 1 1 1 1 2 2 2 3 3 3 3 4 5 4 4 4 5 5
6 6 7 7 7 7 7 6 6 6 5 5 5 5 4 4 3 3 2 2 2 2 1 0 1 1 1 1 2 2 3 3 4 4 4 4 4 5 5 6 6 6 6
5 6 5 5 5 5 5 5 5 5 5 5 4 4 3 3 3 2 1 1 2 2 2 1 1 1 2 2 3 3 4 4 3 4 5 5 6 6 6 6 6 6 7
5 4 4 4 4 4 4 4 4 4 4 4 3 3 3 3 2 1 1 1 1 2 3 3 3 3 3 3 3 4 5 5 4 5 6 6 7 7 7 7 6 7 7
5 4 4 4 3 4 4 4 4 4 4 3 3 3 2 2 2 1 0 0 1 2 3 3 4 4 4 4 4 5 5 5 5 5 6 7 7 7 7 7 7 8 8
4 4 4 4 4 5 4 4 4 3 3 3 3 2 2 2 2 1 0 1 1 2 3 3 4 5 5 6 6 6 6 7 6 6 6 6 7 8 7 7 8 8 9
4 4 3 3 3 4 4 4 4 3 3 2 2 2 2 1 1 1 1 1 2 2 2 3 4 5 6 6 6 6 6 7 7 7 6 6 6 7 7 7 9 10 9
4 3 2 2 2 3 3 3 3 3 2 1 2 1 1 1 1 1 2 2 2 3 3 4 5 6 7 7 6 6 7 7 7 7 7 7 8 8 8 9 9 10 11
3 2 1 1 2 1 1 1 1 2 0 0 0 1 1 1 1 2 3 3 3 3 4 5 6 6 7 6 6 6 7 7 7 8 9 9 9 8 9 9 10 10 11
2 2 1 0 1 1 1 1 1 1 1 1 1 1 1 1 2 2 3 4 4 5 5 6 6 6 6 7 8 8 8 8 9 10 10 10 10 10 10 11 11 11 12
2 2 1 1 1 1 1 1 2 2 2 2 2 2 2 2 2 3 4 5 5 5 6 6 6 7 7 8 9 9 10 10 10 10 10 11 11 11 11 12 12 13 13
2 2 2 1 1 1 2 2 3 3 4 4 3 3 3 3 4 4 5 5 5 6 6 7 7 8 8 9 9 10 11 11 11 11 11 12 12 13 13 13 14 14 14
3 3 2 2 2 2 2 3 4 4 4 4 4 4 4 5 5 5 6 6 7 7 8 8 9 9 9 10 11 11 12 13 13 13 13 13 13 14 15 15 15 15 15
4 4 3 3 3 3 4 4 4 5 5 5 5 5 5 6 6 7 7 8 8 9 9 10 10 11 11 12 12 13 13 14 14 14 14 14 14 14 15 15 16 16 16
3 4 4 5 5 6 6 6 6 6 7 7 6 6 7 7 8 8 9 9 10 11 11 11 11 12 13 13 13 14 14 15 15 15 15 15 15 15 15 16 16 17 17
5 5 5 5 6 7 7 7 7 7 7 7 7 8 8 8 9 9 10 11 12 12 13 13 13 13 13 14 14 15 15 16 16 15 15 16 16 16 17 16 16 17 18
6 6 6 6 7 8 8 9 8 8 9 10 9 9 9 10 10 11 12 12 13 13 14 14 14 14 15 15 16 16 16 16 16 15 15 16 16 17 17 17 17 17 19
7 7 7 8 9 9 9 9 10 10 10 10 10 10 11 11 12 12 13 13 14 14 15 16 16 16 16 16 16 17 17 17 16 16 16 16 17 18 18 18 18 19 20
9 9 9 10 10 11 11 11 11 11 11 12 12 13 13 13 14 14 15 15 15 15 16 17 18 18 17 18 18 18 18 18 17 17 18 18 18 19 19 20 20 21 22
Wind_Direction
98 98 99 101 104 110 109 116 132 138 139 136 140 140 138 137 136 136 132 131 130 128 124 122 115 110 119 147 171 174 188 208 222 228 232 234 232 253 283 302 309 270 247
101 100 99 101 103 108 113 122 123 132 136 137 140 140 135 135 135 134 129 128 132 133 123 122 117 114 110 110 139 159 188 209 214 228 230 230 223 239 270 299 301 283 250
99 101 100 104 106 109 114 124 128 132 135 136 140 136 132 133 131 130 128 126 129 135 127 121 118 117 111 104 112 133 180 225 225 248 230 231 228 234 245 256 270 272 238
99 102 103 105 108 110 115 121 127 130 131 133 132 128 130 130 127 126 125 126 126 135 125 115 114 106 99 99 106 116 133 233 236 266 237 267 246 230 232 236 231 235 241
100 103 107 107 109 112 116 119 123 127 129 133 129 127 128 129 127 127 125 127 131 131 118 107 103 99 105 101 105 119 108 273 264 274 261 275 239 228 238 250 238 234 245
101 103 108 112 114 115 116 116 123 127 131 134 134 131 129 126 127 131 127 128 128 123 119 81 59 89 91 82 95 155 264 289 292 270 251 275 259 270 263 274 268 256 252
101 105 110 114 117 119 119 121 127 131 136 138 138 140 135 131 132 140 142 129 130 116 110 77 96 68 73 69 45 318 281 291 293 277 262 263 261 276 282 285 274 265 263
104 109 112 113 118 121 119 119 127 127 133 137 137 140 144 142 145 149 154 145 143 146 140 129 124 73 40 18 339 315 298 292 288 275 272 266 260 267 268 282 280 268 256
107 115 119 118 118 120 120 122 127 130 132 137 141 140 142 149 150 159 160 160 167 172 182 274 30 17 354 341 321 309 299 295 292 281 272 268 274 275 270 270 273 265 261
112 118 125 125 125 128 128 129 132 133 133 135 136 144 148 148 142 144 155 177 197 207 224 255 288 324 320 316 309 300 301 295 294 286 273 269 273 273 276 275 271 268 268
111 117 122 132 134 134 132 134 144 147 140 134 130 129 138 145 141 137 156 179 213 219 224 246 267 277 292 299 303 298 299 291 295 292 282 273 277 277 277 274 270 271 271
109 112 117 122 133 137 132 133 135 144 150 132 124 121 130 135 130 126 151 230 256 243 233 244 261 270 278 288 288 288 292 296 293 288 288 283 279 276 274 272 273 276 277
102 107 111 120 128 137 136 129 126 131 145 143 131 114 112 104 89 78 25 328 301 274 252 253 258 264 276 287 291 286 287 290 292 290 287 285 280 275 274 274 277 280 274
96 106 107 116 135 140 140 132 128 126 138 154 147 132 118 94 66 49 18 317 312 312 283 277 274 274 276 279 284 292 291 290 291 293 289 289 285 277 277 276 280 278 274
85 90 97 110 141 151 152 140 126 122 122 144 149 135 121 65 25 11 359 338 326 323 300 295 299 295 288 282 287 292 287 288 293 299 293 290 287 280 276 279 277 276 273
59 56 69 113 128 160 174 174 115 85 99 191 258 274 284 333 353 360 358 352 335 317 302 299 304 303 295 295 299 302 301 290 290 292 289 289 287 286 281 280 279 280 277
38 28 31 126 184 223 236 221 153 32 315 307 286 277 277 300 319 330 334 337 335 324 312 304 302 300 296 291 295 297 299 298 296 293 287 286 284 283 285 285 283 283 283
11 6 1 350 287 272 252 241 248 282 297 304 300 302 308 309 312 319 320 320 322 322 317 313 305 297 296 295 295 297 298 300 302 302 295 292 287 287 287 287 284 282 283
355 348 347 341 334 306 277 278 274 284 289 290 287 292 299 303 302 305 309 306 306 311 312 312 309 299 298 301 298 298 299 301 304 303 299 295 292 289 290 289 287 282 281
358 356 355 356 333 317 310 306 295 291 288 287 283 283 292 296 297 299 303 301 298 302 304 304 306 300 297 298 298 298 299 301 300 299 298 294 292 290 289 289 290 285 280
349 347 340 327 325 316 311 312 309 298 288 287 286 285 290 295 297 302 302 296 295 298 300 300 301 298 298 296 298 298 298 301 302 299 296 294 293 293 291 288 289 287 285
329 336 333 320 314 314 309 305 304 299 289 286 288 286 290 295 296 298 302 298 293 295 297 294 295 295 297 296 297 298 298 298 296 297 296 295 295 293 291 291 289 287 285
319 315 317 321 323 317 313 305 300 298 303 298 294 288 291 293 293 292 294 297 297 295 296 293 292 292 293 292 294 295 295 296 295 297 297 295 296 296 294 292 290 288 284
319 314 306 306 308 312 310 305 301 299 297 295 293 293 292 293 295 296 293 293 294 294 293 293 292 290 290 290 291 293 293 295 294 295 298 298 297 297 295 294 292 292 286
314 311 308 305 303 304 304 303 299 297 295 293 293 291 293 295 296 297 297 295 294 293 292 293 292 290 292 291 292 293 293 294 294 296 296 297 297 297 296 293 291 292 292
305 305 305 303 300 299 297 297 294 295 295 294 295 293 293 294 295 295 297 298 297 296 295 293 292 290 290 291 293 293 292 292 293 293 296 295 296 296 296 296 293 293 294
Height
5892 5891 5891 5890 5890 5889 5888 5885 5886 5889 5891 5892 5893 5893 5894 5894 5895 5895 5896 5896 5896 5896 5896 5896 5895 5895 5895 5895 5895 5895 5895 5895 5895 5894 5894 5894 5894 5894 5894 5894 5894 5893 5894
5893 5892 5892 5891 5891 5891 5890 5890 5890 5891 5892 5893 5893 5893 5894 5895 5895 5896 5896 5896 5896 5896 5896 5896 5896 5895 5895 5895 5895 5895 5895 5895 5895 5894 5894 5894 5894 5894 5894 5894 5894 5894 5893
5894 5893 5893 5893 5893 5892 5892 5892 5892 5893 5893 5894 5894 5894 5895 5895 5896 5896 5896 5896 5896 5896 5896 5896 5896 5896 5895 5895 5895 5895 5895 5894 5894 5894 5894 5894 5894 5894 5894 5894 5894 5893 5893
5895 5894 5894 5894 5894 5894 5894 5894 5893 5894 5894 5895 5895 5895 5896 5896 5896 5897 5897 5897 5897 5896 5896 5896 5896 5896 5895 5895 5895 5895 5894 5894 5894 5894 5894 5894 5893 5893 5893 5893 5893 5893 5893
5896 5895 5895 5895 5895 5895 5895 5895 5895 5895 5895 5896 5896 5896 5896 5897 5897 5897 5897 5897 5897 5897 5897 5897 5896 5896 5896 5895 5895 5895 5894 5894 5893 5893 5893 5893 5893 5893 5893 5893 5893 5893 5893
5897 5896 5896 5896 5896 5896 5896 5896 5896 5896 5896 5897 5897 5897 5897 5897 5897 5898 5898 5898 5898 5897 5898 5897 5897 5896 5896 5895 5895 5894 5894 5893 5893 5892 5892 5893 5893 5893 5893 5892 5892 5892 5892
5898 5897 5898 5897 5898 5898 5897 5897 5898 5898 5897 5897 5897 5897 5897 5898 5898 5898 5898 5898 5898 5898 5898 5897 5897 5896 5896 5895 5895 5894 5894 5893 5893 5892 5892 5892 5892 5892 5892 5892 5892 5892 5892
5899 5899 5899 5899 5899 5899 5899 5899 5899 5898 5898 5898 5898 5898 5898 5898 5898 5898 5898 5898 5898 5898 5898 5897 5897 5896 5895 5895 5894 5894 5893 5893 5892 5892 5892 5892 5892 5892 5891 5891 5891 5891 5891
5901 5900 5900 5900 5900 5900 5900 5900 5900 5899 5899 5898 5898 5898 5898 5898 5898 5898 5898 5898 5898 5898 5897 5897 5896 5896 5895 5895 5894 5893 5893 5892 5892 5891 5891 5891 5891 5890 5890 5890 5890 5890 5890
5902 5901 5901 5901 5901 5901 5900 5900 5900 5900 5899 5899 5899 5899 5898 5898 5898 5898 5897 5897 5897 5897 5897 5897 5896 5896 5895 5894 5894 5893 5892 5891 5891 5890 5890 5890 5890 5889 5889 5889 5889 5889 5889
5902 5902 5902 5902 5902 5901 5901 5901 5900 5900 5900 5899 5899 5899 5898 5898 5898 5897 5897 5897 5896 5896 5896 5896 5896 5895 5894 5894 5893 5893 5892 5891 5890 5890 5889 5889 5889 5888 5888 5887 5887 5887 5887
5903 5903 5903 5903 5902 5902 5901 5901 5900 5900 5900 5899 5899 5899 5898 5898 5897 5897 5896 5896 5896 5895 5895 5895 5895 5894 5893 5893 5892 5892 5891 5890 5889 5889 5888 5888 5887 5887 5886 5886 5886 5886 5886
5903 5903 5903 5903 5903 5902 5902 5901 5901 5900 5900 5899 5899 5899 5898 5898 5897 5896 5896 5895 5895 5894 5894 5894 5893 5893 5892 5892 5891 5890 5890 5889 5888 5888 5887 5887 5886 5885 5885 5885 5884 5884 5883
5904 5904 5904 5904 5903 5902 5902 5901 5901 5900 5900 5899 5899 5898 5898 5898 5897 5896 5896 5895 5894 5893 5892 5892 5892 5891 5891 5890 5889 5889 5888 5888 5887 5886 5886 5885 5885 5884 5883 5883 5882 5881 5880
5904 5904 5904 5904 5903 5903 5902 5901 5901 5901 5900 5899 5899 5899 5898 5898 5897 5896 5895 5894 5893 5893 5892 5891 5891 5890 5889 5888 5888 5887 5887 5886 5885 5885 5884 5884 5883 5882 5882 5881 5880 5879 5878
5905 5904 5904 5903 5903 5903 5902 5901 5901 5900 5900 5899 5899 5898 5898 5897 5896 5896 5895 5894 5893 5892 5892 5891 5890 5889 5888 5887 5886 5886 5885 5884 5884 5883 5882 5881 5881 5880 5879 5878 5877 5876 5876
5905 5904 5904 5903 5903 5902 5902 5901 5900 5900 5899 5899 5898 5898 5897 5896 5896 5895 5895 5894 5893 5892 5891 5890 5889 5888 5887 5886 5885 5884 5884 5883 5882 5881 5880 5879 5878 5877 5876 5875 5874 5874 5873
5905 5904 5904 5903 5902 5902 5901 5901 5900 5899 5899 5898 5897 5897 5896 5895 5895 5894 5893 5893 5892 5891 5890 5889 5888 5887 5886 5884 5883 5883 5882 5881 5880 5878 5877 5876 5875 5874 5873 5873 5872 5871 5870
5905 5904 5903 5903 5902 5902 5901 5900 5899 5899 5898 5897 5897 5896 5895 5894 5894 5893 5892 5891 5890 5889 5888 5887 5886 5885 5884 5882 5881 5880 5879 5878 5877 5876 5875 5873 5872 5871 5870 5869 5869 5868 5867
5905 5904 5903 5902 5902 5901 5900 5900 5899 5898 5897 5896 5896 5895 5894 5893 5893 5892 5891 5890 5889 5888 5887 5886 5884 5883 5882 5880 5879 5878 5877 5876 5874 5873 5872 5870 5869 5868 5867 5866 5865 5864 5863
5905 5904 5903 5902 5902 5900 5900 5899 5898 5897 5896 5896 5895 5894 5893 5892 5891 5890 5889 5888 5887 5886 5885 5883 5882 5881 5879 5878 5877 5876 5875 5873 5871 5870 5868 5867 5866 5864 5863 5862 5861 5860 5859
5904 5904 5903 5902 5901 5900 5899 5898 5897 5896 5895 5894 5894 5893 5892 5891 5890 5889 5887 5886 5885 5884 5883 5881 5880 5878 5877 5875 5874 5873 5872 5871 5869 5867 5865 5863 5862 5860 5859 5858 5857 5855 5854
5904 5903 5902 5901 5900 5899 5898 5897 5895 5894 5893 5893 5892 5891 5890 5889 5888 5886 5885 5884 5883 5881 5880 5879 5877 5876 5874 5872 5871 5870 5868 5867 5865 5864 5861 5860 5858 5856 5855 5854 5852 5851 5850
5904 5902 5901 5900 5899 5898 5896 5895 5894 5893 5892 5891 5889 5888 5887 5886 5885 5884 5882 5881 5880 5878 5877 5876 5874 5872 5871 5869 5867 5866 5864 5862 5861 5860 5858 5856 5854 5852 5851 5849 5848 5846 5845
5903 5901 5900 5899 5897 5896 5895 5894 5892 5891 5890 5888 5887 5886 5885 5883 5882 5881 5879 5878 5876 5875 5873 5872 5870 5869 5867 5865 5864 5862 5860 5858 5856 5855 5854 5852 5850 5848 5846 5845 5843 5842 5840
5902 5900 5898 5897 5896 5894 5893 5892 5890 5889 5887 5886 5885 5883 5882 5880 5879 5877 5876 5874 5873 5871 5870 5868 5866 5864 5863 5861 5859 5858 5856 5854 5852 5851 5849 5848 5846 5844 5842 5840 5838 5836 5834